Date,TemperatureHighF,TemperatureAvgF,TemperatureLowF,DewpointHighF,DewpointAvgF,DewpointLowF,HumidityHigh,HumidityAvg,HumidityLow,PressureMaxIn,PressureMinIn,WindSpeedMaxMPH,WindSpeedAvgMPH,GustSpeedMaxMPH,PrecipitationSumIn
2013-2-1,31,26,19,17,6,-100,69,45,37,29.98,29.44,16,8,29,0.03
2013-2-2,29,23,16,12,7,4,64,50,38,30.15,29.97,7,3,17,0.00
2013-2-3,28,26,21,19,16,12,88,68,54,29.97,29.64,7,4,15,0.00
2013-2-4,30,25,21,17,8,2,74,48,33,29.82,29.62,12,7,36,0.00
2013-2-5,29,22,14,17,7,-100,71,53,39,29.96,29.82,5,2,20,0.00
2013-2-6,37,30,22,26,18,-3,90,63,32,30.22,29.85,10,4,27,0.01
2013-2-7,27,22,15,11,-2,-100,58,36,26,30.46,30.22,13,3,27,0.01
2013-2-8,28,20,16,27,16,11,95,85,60,30.44,29.65,17,6,41,0.00
2013-2-9,23,19,14,16,12,6,90,75,60,30.08,29.58,19,11,41,0.00
2013-2-10,24,16,13,5,-1,-100,65,54,39,30.30,30.09,5,3,15,0.00
2013-2-11,39,34,26,38,32,19,97,94,71,30.08,29.52,8,2,19,0.47
2013-2-12,44,39,33,34,30,28,97,73,57,29.75,29.48,11,5,21,0.04
2013-2-13,42,36,31,28,25,23,76,65,50,29.78,29.64,8,2,15,0.00
2013-2-14,39,35,31,24,23,21,73,62,49,29.80,29.61,6,3,17,0.00
2013-2-15,52,43,31,37,33,27,87,68,49,29.91,29.81,7,4,16,0.00
2013-2-16,40,36,32,34,28,19,93,76,57,29.87,29.70,7,2,19,0.01
2013-2-17,32,21,16,19,10,3,89,63,41,29.70,29.22,16,11,41,0.01
2013-2-18,31,23,14,6,1,-4,59,39,22,30.03,29.49,17,10,38,0.00
2013-2-19,42,35,23,41,22,-1,96,63,33,30.06,29.47,9,4,21,0.47
2013-2-20,40,33,27,39,23,15,97,66,54,29.64,29.40,12,7,32,0.47
2013-2-21,29,26,22,18,14,10,68,59,49,30.09,29.64,13,8,28,0.00
2013-2-22,42,33,24,26,22,17,78,65,47,30.32,30.09,8,2,17,0.00
2013-2-23,39,36,31,35,30,24,91,81,74,30.27,29.89,7,2,17,0.06
2013-2-24,38,33,29,36,32,28,96,94,91,29.89,29.66,8,4,18,0.21
2013-2-25,41,35,29,34,31,28,96,85,72,30.16,29.82,3,1,7,0.19
2013-2-26,42,37,31,36,32,29,95,81,70,30.27,30.13,3,1,7,0.07
2013-2-27,42,38,34,38,35,30,97,89,74,30.13,29.49,10,6,19,1.51
2013-2-28,46,39,33,38,35,32,97,86,71,29.55,29.45,10,3,22,0.68